Temperature
12 12 12 12 12 12 12 12 12 12 12 12 12 12 12 12 12 12 12 11 11 11 11 11 11 10 10 10 10 10 10 10 10 10 10 10 10 9 9 9 9 9 9
12 12 12 12 12 12 12 11 11 11 11 11 11 11 11 11 11 11 11 11 11 11 11 10 10 10 10 9 9 9 9 9 9 9 9 9 9 9 9 9 9 9 9
11 11 11 11 11 11 11 11 11 11 11 11 11 11 11 11 11 11 11 11 11 11 10 10 10 10 9 9 9 9 9 9 9 9 9 9 9 9 9 9 9 9 9
11 11 11 11 11 11 11 11 10 11 10 10 10 10 10 10 10 10 10 10 10 10 10 10 10 9 9 9 9 9 9 9 9 9 9 9 8 8 8 8 8 8 8
10 10 10 10 10 10 10 10 10 10 10 10 10 10 10 10 10 10 10 10 10 10 9 9 9 9 9 9 8 8 8 8 8 8 8 8 8 8 8 8 8 8 8
9 10 10 10 10 10 10 10 10 10 10 10 9 9 9 9 9 9 9 9 9 9 9 9 9 9 9 8 8 8 8 8 8 8 8 8 8 8 8 8 8 8 8
9 9 9 9 9 9 10 9 9 9 9 9 9 9 9 9 9 9 9 9 9 8 8 8 8 8 8 8 8 8 8 7 7 7 7 7 7 7 7 7 7 8 7
8 8 8 9 9 9 9 9 9 9 9 8 8 8 8 8 8 8 8 8 8 8 8 8 8 8 8 8 7 7 7 7 7 7 7 7 7 7 7 7 7 7 7
8 8 8 8 8 8 8 8 8 8 8 8 7 7 7 7 7 7 7 7 7 7 7 7 7 7 7 7 7 7 7 7 6 6 6 6 6 6 6 6 6 6 6
7 7 7 7 7 8 8 8 8 7 7 7 7 7 6 6 6 6 7 7 7 7 7 7 7 7 6 6 6 6 6 6 6 6 6 6 6 6 6 6 6 6 6
7 7 7 7 7 7 7 7 7 7 7 6 6 6 6 6 6 5 5 6 6 7 6 6 6 6 6 6 6 6 6 6 6 6 5 5 5 5 5 5 5 5 5
6 6 6 6 6 6 6 6 6 6 6 6 6 6 6 5 5 5 5 5 5 6 6 6 6 6 5 5 5 5 5 5 5 5 5 5 5 5 5 5 5 5 5
5 5 5 5 5 6 6 6 6 6 6 5 5 5 5 5 5 5 4 4 4 4 5 5 5 5 5 5 5 4 4 4 4 4 4 4 4 4 4 4 4 4 5
4 4 5 5 5 5 5 5 5 5 5 5 5 5 5 4 4 4 4 4 3 3 4 4 4 4 4 4 4 4 4 4 4 4 4 4 4 4 4 4 4 4 4
4 4 4 4 4 4 4 4 4 4 4 4 4 4 4 4 4 4 3 3 3 2 2 3 3 4 4 3 3 3 3 3 3 3 3 3 3 3 3 3 3 3 4
3 3 3 3 3 3 3 4 4 4 4 4 4 4 3 3 3 3 3 3 2 2 2 3 3 3 3 3 3 3 3 3 3 3 3 3 3 3 3 3 3 3 3
3 3 3 3 3 3 3 3 3 3 3 3 3 3 3 3 3 3 3 2 2 2 2 2 2 2 2 2 2 2 2 2 2 2 2 2 2 2 2 2 2 2 2
2 2 2 2 2 2 2 2 3 2 3 3 2 2 2 2 2 2 2 2 2 2 1 1 2 2 2 1 2 2 2 2 2 2 2 2 2 2 2 2 2 2 2
2 2 2 2 2 2 2 2 2 2 2 2 2 2 2 2 2 1 1 1 1 1 1 1 1 1 1 1 1 1 1 1 1 1 1 1 1 1 1 1 1 1 1
1 1 1 1 1 1 1 1 1 2 1 1 1 1 1 1 1 1 1 1 1 1 1 0 0 0 1 0 0 1 1 1 1 1 1 1 1 1 1 1 1 1 1
0 1 1 1 1 1 1 1 1 1 1 1 1 1 1 0 0 0 1 1 0 0 0 0 0 0 -0 -0 -0 -0 -0 0 0 1 1 1 1 1 1 1 1 1 1
0 0 0 0 0 0 0 0 0 0 0 0 0 0 0 0 0 0 0 0 -0 -0 -0 -0 -0 -0 -0 -0 -1 -1 -1 -1 -0 -0 -0 0 0 0 0 0 0 0 0
-0 -0 -0 -0 -0 -0 -0 -0 -0 -0 -0 -1 -1 -1 -0 -0 -0 -0 -0 -0 -0 -1 -1 -1 -1 -1 -1 -1 -1 -1 -1 -1 -1 -1 -1 -0 -0 -0 -0 -0 -0 -0 -0
-1 -1 -1 -1 -1 -1 -1 -1 -1 -1 -1 -1 -1 -1 -1 -1 -1 -1 -1 -1 -1 -1 -1 -1 -1 -1 -1 -1 -1 -1 -1 -1 -1 -1 -1 -1 -1 -1 -0 -1 -0 -1 -1
-1 -1 -1 -1 -1 -2 -2 -2 -1 -1 -1 -1 -2 -2 -1 -1 -1 -1 -1 -1 -1 -1 -1 -1 -2 -2 -2 -2 -2 -2 -2 -2 -2 -1 -1 -1 -1 -1 -1 -1 -1 -1 -1
-2 -2 -2 -2 -2 -2 -2 -2 -2 -2 -2 -2 -2 -2 -2 -2 -2 -2 -2 -2 -1 -1 -2 -2 -2 -2 -2 -2 -2 -2 -2 -2 -2 -2 -2 -2 -2 -2 -2 -1 -1 -1 -1
Wind_Speed
4 3 3 3 3 3 3 3 3 3 2 2 2 2 1 1 1 1 2 3 3 4 4 4 3 2 3 3 2 2 3 3 3 4 4 5 6 6 6 7 7 8 8
4 4 4 3 3 3 3 3 3 3 2 2 1 1 1 2 2 2 2 2 3 3 4 4 3 4 3 3 3 4 4 5 5 5 5 6 6 7 8 8 8 9 10
4 4 4 3 3 4 3 3 2 2 2 1 1 1 1 1 2 2 2 2 2 3 3 4 4 4 4 4 4 4 5 6 6 6 7 7 7 8 9 9 9 10 11
4 4 4 4 3 4 3 3 3 2 1 1 1 1 0 1 1 2 2 2 1 1 2 3 4 4 5 5 5 5 6 6 7 8 8 8 9 9 9 10 11 11 12
4 3 3 3 4 3 3 3 2 2 2 1 1 1 1 1 1 1 1 2 2 2 2 3 4 4 5 6 6 7 7 7 7 8 9 9 9 10 10 11 12 12 12
2 3 2 4 5 4 3 3 3 2 2 1 1 1 2 1 1 1 2 2 2 2 3 3 4 5 6 7 8 8 9 9 9 9 10 10 10 11 12 12 13 13 13
2 1 2 2 4 4 4 4 3 2 1 2 1 1 2 2 1 1 1 1 1 2 2 3 4 4 5 7 9 9 10 11 11 11 11 11 11 11 12 12 12 13 13
2 2 2 2 2 3 4 4 3 2 1 1 2 1 1 2 2 2 1 1 1 1 1 3 4 4 5 6 8 9 10 12 12 11 12 12 12 12 12 12 13 13 13
1 2 2 2 2 3 4 4 4 3 3 2 1 2 2 2 2 2 2 2 2 1 2 3 4 5 6 6 7 9 11 12 13 13 12 12 13 13 13 13 13 14 14
1 1 2 2 2 3 4 5 4 3 3 3 1 1 1 2 1 2 3 2 2 3 3 3 3 5 6 6 7 9 10 12 13 13 13 13 13 14 14 14 14 15 15
1 1 2 2 3 3 4 4 4 4 3 4 3 1 1 0 1 2 3 3 3 3 3 3 3 4 5 6 7 8 10 11 11 12 13 14 14 14 15 15 15 15 15
1 1 2 2 3 3 3 4 4 5 4 4 3 3 2 2 2 2 3 4 4 4 4 3 3 3 5 6 7 9 10 10 11 12 13 13 14 14 15 15 15 15 15
1 2 1 2 3 3 3 3 4 5 5 5 5 4 4 3 2 2 2 3 4 4 3 3 3 3 4 5 7 10 10 10 11 12 12 13 13 14 15 15 15 16 16
2 2 2 2 3 4 3 3 3 4 4 5 5 4 3 3 3 2 2 2 3 4 3 4 3 3 3 5 8 9 9 11 12 12 13 13 13 13 14 14 14 15 15
2 2 2 3 3 4 4 3 3 4 4 5 5 5 4 3 3 3 3 3 3 4 6 4 3 3 4 5 8 8 8 11 12 12 12 12 12 13 13 13 13 14 14
3 3 3 3 3 4 3 3 3 4 4 4 4 4 4 3 3 3 3 3 3 4 5 3 3 3 4 6 9 8 8 12 12 12 12 12 12 12 12 12 13 13 14
2 2 3 3 4 4 3 3 3 3 4 4 4 4 5 4 3 3 3 3 3 3 6 6 3 3 4 5 6 6 8 8 9 11 12 12 12 12 12 12 12 12 13
2 2 2 2 3 3 3 3 4 3 4 5 5 5 5 4 4 3 3 4 4 4 5 7 5 4 4 4 5 5 6 7 8 10 11 11 11 11 11 11 11 11 12
2 2 1 2 2 2 2 3 3 3 4 4 5 5 5 5 5 4 4 4 4 4 4 5 6 4 4 3 4 5 6 5 7 8 10 10 10 11 11 11 11 12 12
2 2 2 2 2 2 2 2 2 2 3 3 4 4 5 5 6 5 5 4 4 3 4 4 5 4 4 3 3 4 5 4 5 6 8 8 9 11 11 11 12 12 12
2 2 2 1 1 2 2 2 2 2 2 2 3 3 4 5 6 5 4 4 4 4 4 4 5 5 5 3 4 3 5 5 5 4 4 5 5 5 7 10 11 11 11
2 1 1 1 1 2 3 2 1 1 2 2 2 2 2 3 4 5 6 6 6 5 5 5 5 6 6 5 4 4 4 5 5 2 3 5 3 5 5 6 9 10 10
1 1 1 1 2 2 3 2 1 0 0 1 1 1 2 2 3 2 3 4 5 7 7 6 6 7 6 5 5 5 5 5 5 4 3 6 4 5 5 7 10 9 10
1 1 1 1 1 2 3 3 2 1 1 0 1 1 2 2 3 2 2 3 3 4 5 4 5 6 6 5 5 6 6 5 4 4 3 4 4 4 5 6 9 9 9
1 1 1 1 1 2 3 3 3 1 1 1 1 1 1 2 3 3 2 3 3 3 4 5 6 6 7 7 5 3 3 3 5 3 2 2 3 4 4 4 6 9 10
1 1 1 1 1 2 3 3 3 1 1 1 1 1 3 3 4 4 2 2 3 3 3 3 4 5 4 5 5 4 4 4 3 3 2 2 3 3 4 3 3 6 7
Wind_Direction
154 152 149 142 143 141 142 141 131 125 119 110 122 119 126 139 148 161 191 196 200 210 216 222 228 226 232 232 244 261 269 276 277 283 288 295 299 299 299 300 301 302 306
157 163 160 156 151 155 153 154 152 148 149 137 136 119 150 178 175 186 197 208 213 222 227 228 232 238 245 255 263 264 270 271 274 279 283 287 293 294 295 297 299 298 299
156 162 160 160 161 154 146 140 130 122 135 132 149 157 152 179 177 193 203 208 217 235 241 247 248 248 249 255 267 275 280 274 274 277 279 282 287 291 290 292 295 296 297
158 160 160 162 157 147 145 151 146 144 147 158 205 254 245 186 173 190 180 179 194 234 252 262 267 265 263 265 267 273 278 276 273 273 275 278 281 286 289 287 288 291 293
167 167 173 167 155 153 156 155 144 154 167 190 225 247 253 232 230 183 173 187 199 235 249 262 265 271 280 282 280 278 279 278 280 278 278 278 280 284 287 289 287 288 290
172 166 176 171 160 160 163 156 155 153 168 175 197 275 271 262 250 216 217 205 218 234 244 255 266 273 279 287 290 289 286 282 282 284 281 282 283 283 284 287 288 288 291
138 128 160 173 165 168 167 164 162 160 139 111 96 342 327 306 282 258 222 185 229 249 257 257 264 273 280 288 292 294 293 290 289 288 285 282 284 287 288 289 290 291 292
135 130 117 144 153 156 152 157 155 164 157 133 131 112 322 322 320 291 264 233 247 268 280 277 275 274 275 283 289 292 296 296 295 294 292 285 284 286 291 296 294 292 292
154 138 146 142 163 170 168 171 171 171 183 209 160 146 161 237 296 300 276 257 256 252 263 274 270 270 272 277 285 290 293 295 295 296 295 298 296 292 292 293 296 295 292
185 175 168 175 180 185 184 185 178 175 172 192 225 227 200 175 207 290 300 296 293 270 267 282 280 276 275 278 286 294 296 295 293 295 296 299 300 301 299 296 295 295 295
251 196 191 199 203 205 206 197 185 179 180 194 195 202 225 255 193 218 270 290 302 281 273 266 263 269 279 282 286 290 298 298 299 300 300 299 301 303 302 301 301 301 298
262 232 212 217 220 220 217 212 202 194 197 199 205 195 188 191 216 216 252 274 285 288 285 267 259 262 277 284 285 295 297 298 299 301 302 302 302 302 303 303 304 303 302
268 256 248 240 235 231 226 221 214 207 204 202 211 218 215 215 204 210 236 267 281 287 282 274 258 265 278 285 288 294 296 299 299 299 300 300 300 300 299 301 303 304 305
263 252 250 254 250 238 229 220 226 220 211 211 218 220 223 224 209 208 212 240 283 283 272 270 282 253 276 287 288 294 296 297 297 298 298 298 298 297 297 299 300 302 304
272 253 249 246 244 233 222 218 231 228 218 217 216 218 226 228 216 217 213 209 229 269 275 263 268 284 291 285 288 293 293 293 296 294 295 297 297 296 296 298 299 300 301
275 253 245 245 240 233 217 215 235 234 228 228 220 218 225 226 221 217 213 222 226 243 267 265 263 283 291 292 290 294 292 294 293 294 296 298 298 297 297 297 299 300 300
269 272 257 250 247 235 220 213 233 237 229 233 229 225 232 228 226 226 225 228 233 239 263 280 275 279 274 284 296 297 298 294 293 294 296 298 299 298 298 298 298 299 302
273 269 275 276 266 246 226 215 228 235 231 228 227 228 234 232 229 228 226 232 239 241 252 275 285 280 274 278 286 292 299 297 292 293 295 298 299 299 301 303 303 303 304
300 293 283 276 279 264 245 229 220 230 233 232 230 229 232 224 230 229 227 234 241 251 247 260 277 284 281 285 293 294 294 295 295 298 298 297 299 299 299 300 301 301 302
308 300 290 283 283 279 258 239 228 227 240 247 244 239 238 233 234 233 236 236 237 243 247 259 272 281 283 284 282 288 295 296 294 306 303 298 299 302 299 299 299 300 298
300 291 295 293 302 282 257 235 219 223 225 235 242 242 243 244 248 250 251 241 234 244 252 260 268 276 278 280 278 280 285 297 293 293 295 295 299 299 302 299 297 298 298
314 319 311 302 303 298 293 285 258 206 222 227 238 244 258 260 268 273 272 269 256 249 247 252 264 269 273 270 275 279 283 295 294 297 302 299 303 290 296 301 300 301 302
317 311 308 314 302 303 316 316 328 54 183 227 231 241 277 286 294 276 290 294 287 279 266 258 259 262 266 264 264 272 273 276 276 287 304 295 297 290 296 303 305 302 305
306 293 304 311 312 319 335 345 14 49 80 347 262 241 247 268 277 276 276 276 275 279 275 267 257 263 264 261 254 257 263 271 273 277 271 281 292 289 299 306 313 318 319
336 340 346 343 335 324 347 2 15 66 67 35 336 295 259 258 287 301 286 278 284 292 296 282 277 278 279 279 271 265 267 272 280 282 266 272 290 298 295 293 309 320 322
346 355 8 358 329 313 342 1 14 75 61 21 350 320 303 300 301 305 288 271 281 289 300 304 303 302 303 297 289 265 256 259 274 281 269 282 287 308 306 294 304 321 325
Height
1506 1507 1508 1509 1511 1512 1513 1514 1515 1516 1517 1518 1519 1520 1520 1521 1521 1522 1522 1522 1523 1523 1523 1522 1522 1521 1521 1520 1520 1519 1519 1518 1518 1517 1516 1516 1515 1514 1513 1512 1511 1510 1509
1504 1505 1506 1507 1508 1509 1510 1512 1513 1514 1515 1516 1517 1517 1518 1519 1519 1519 1520 1520 1520 1520 1520 1520 1520 1519 1519 1519 1518 1517 1516 1516 1515 1515 1514 1513 1512 1512 1511 1509 1508 1507 1506
1501 1502 1503 1504 1506 1507 1508 1509 1510 1511 1513 1513 1514 1515 1516 1516 1517 1517 1517 1518 1518 1518 1518 1518 1517 1517 1517 1516 1516 1515 1514 1513 1513 1512 1511 1511 1510 1509 1508 1507 1505 1504 1503
1499 1500 1501 1502 1503 1504 1505 1506 1508 1508 1509 1511 1511 1512 1513 1514 1514 1515 1515 1515 1515 1515 1515 1515 1515 1514 1514 1514 1513 1512 1512 1511 1510 1509 1508 1508 1507 1506 1505 1504 1502 1501 1500
1496 1497 1498 1499 1500 1501 1503 1504 1505 1506 1507 1508 1508 1509 1510 1511 1512 1512 1512 1512 1512 1512 1512 1512 1512 1512 1511 1511 1510 1510 1509 1508 1507 1506 1505 1504 1504 1502 1501 1500 1499 1497 1496
1492 1493 1495 1496 1497 1498 1500 1501 1502 1503 1504 1505 1506 1506 1507 1508 1508 1509 1509 1509 1509 1509 1509 1509 1509 1509 1508 1508 1507 1506 1505 1504 1504 1503 1502 1501 1500 1499 1498 1497 1495 1494 1492
1489 1490 1491 1492 1493 1494 1496 1498 1499 1500 1501 1502 1503 1503 1504 1505 1505 1505 1506 1506 1506 1506 1506 1506 1506 1505 1505 1504 1504 1503 1502 1501 1500 1499 1498 1497 1496 1495 1494 1492 1491 1489 1488
1486 1487 1488 1489 1490 1491 1492 1494 1496 1497 1498 1499 1500 1500 1501 1502 1501 1502 1502 1502 1502 1502 1502 1502 1502 1501 1501 1500 1499 1499 1498 1497 1496 1495 1494 1493 1492 1491 1489 1488 1486 1485 1483
1482 1484 1484 1486 1487 1488 1489 1491 1493 1494 1494 1496 1497 1498 1498 1497 1498 1498 1498 1498 1498 1498 1498 1498 1498 1497 1497 1496 1495 1494 1493 1492 1491 1491 1490 1489 1487 1486 1485 1483 1482 1480 1478
1479 1481 1482 1483 1484 1485 1486 1487 1489 1490 1491 1492 1494 1495 1496 1495 1496 1494 1494 1494 1494 1494 1494 1494 1493 1493 1493 1492 1491 1490 1489 1488 1487 1486 1485 1484 1483 1481 1480 1478 1477 1475 1473
1476 1477 1478 1479 1480 1481 1483 1483 1484 1486 1487 1489 1490 1490 1491 1492 1492 1492 1490 1490 1490 1490 1490 1489 1489 1489 1488 1487 1486 1485 1484 1483 1482 1481 1480 1478 1477 1476 1475 1473 1472 1470 1468
1472 1473 1474 1475 1477 1478 1479 1480 1481 1482 1484 1485 1486 1486 1487 1487 1487 1488 1486 1485 1485 1485 1485 1485 1485 1484 1483 1483 1482 1481 1480 1478 1477 1476 1475 1473 1472 1471 1470 1468 1467 1465 1463
1469 1470 1470 1471 1472 1474 1475 1476 1477 1478 1480 1481 1482 1482 1483 1483 1484 1484 1483 1482 1481 1480 1480 1480 1480 1480 1479 1478 1477 1476 1475 1474 1472 1471 1470 1468 1467 1466 1464 1463 1461 1460 1458
1465 1466 1467 1467 1468 1470 1471 1472 1473 1474 1476 1477 1477 1478 1479 1479 1479 1480 1480 1479 1477 1476 1475 1475 1475 1475 1474 1473 1472 1471 1470 1469 1467 1466 1465 1464 1462 1461 1459 1458 1456 1454 1452
1462 1463 1463 1463 1465 1466 1467 1468 1469 1470 1471 1472 1473 1474 1474 1475 1475 1475 1476 1476 1476 1473 1470 1470 1471 1470 1470 1469 1467 1466 1465 1464 1462 1461 1460 1459 1457 1456 1454 1452 1451 1449 1447
1459 1459 1459 1459 1460 1461 1462 1463 1464 1465 1466 1467 1468 1469 1469 1470 1471 1471 1471 1471 1472 1471 1468 1466 1466 1466 1465 1464 1463 1462 1460 1459 1457 1456 1455 1454 1452 1451 1449 1447 1445 1444 1442
1455 1455 1455 1455 1456 1457 1458 1459 1460 1461 1461 1462 1463 1464 1465 1465 1466 1466 1467 1467 1467 1466 1464 1461 1462 1461 1460 1459 1458 1457 1455 1454 1452 1451 1450 1448 1447 1446 1444 1442 1440 1439 1437
1452 1452 1451 1452 1452 1453 1453 1454 1455 1456 1457 1457 1458 1459 1460 1461 1461 1461 1462 1461 1462 1461 1460 1457 1456 1456 1455 1454 1453 1452 1450 1449 1447 1446 1445 1444 1442 1440 1439 1437 1435 1434 1432
1448 1448 1448 1449 1448 1449 1450 1450 1451 1452 1452 1453 1454 1454 1455 1455 1456 1456 1456 1456 1456 1456 1456 1454 1451 1451 1450 1449 1448 1447 1445 1444 1442 1441 1440 1439 1437 1435 1433 1432 1430 1429 1427
1445 1445 1445 1445 1445 1445 1446 1446 1446 1447 1447 1448 1449 1450 1450 1451 1451 1451 1451 1452 1452 1451 1451 1449 1447 1446 1445 1445 1444 1442 1440 1439 1437 1436 1435 1434 1432 1431 1429 1427 1425 1424 1422
1443 1443 1442 1442 1442 1442 1442 1442 1443 1443 1443 1444 1444 1445 1446 1446 1447 1447 1447 1447 1447 1447 1446 1445 1443 1442 1441 1440 1439 1438 1436 1434 1432 1432 1430 1429 1428 1426 1424 1422 1420 1419 1417
1441 1440 1440 1439 1439 1439 1439 1440 1439 1439 1439 1440 1440 1441 1441 1442 1442 1442 1443 1443 1443 1442 1441 1440 1439 1438 1436 1436 1435 1434 1433 1430 1428 1428 1426 1424 1423 1421 1420 1418 1416 1414 1412
1438 1438 1437 1437 1437 1437 1436 1436 1436 1436 1436 1436 1436 1437 1437 1438 1438 1438 1438 1438 1438 1437 1437 1437 1435 1433 1432 1432 1431 1430 1429 1427 1425 1424 1423 1420 1419 1417 1416 1414 1412 1410 1408
1436 1435 1435 1435 1434 1434 1434 1433 1432 1432 1432 1433 1433 1434 1434 1434 1434 1434 1433 1433 1432 1432 1432 1432 1431 1429 1429 1428 1427 1426 1425 1423 1421 1420 1419 1416 1415 1413 1412 1410 1409 1407 1405
1433 1433 1432 1432 1431 1431 1431 1430 1430 1429 1429 1429 1430 1431 1431 1430 1430 1430 1430 1429 1428 1427 1428 1427 1426 1425 1424 1424 1423 1422 1421 1419 1417 1416 1415 1413 1411 1409 1408 1406 1405 1403 1401
1431 1430 1430 1430 1429 1429 1429 1428 1428 1427 1426 1427 1427 1427 1427 1427 1427 1427 1426 1425 1424 1423 1424 1423 1422 1421 1420 1419 1419 1418 1417 1416 1414 1413 1412 1411 1409 1407 1404 1402 1401 1400 1397